CW4185 Weather Reports


time (UTC)temp
C
wind
direction
speed
KPH
gust
KPH
rain 1hr
cm
rain 24hr
cm
rain mn
cm
humidity
%
barometer
mb
20260906083646 25 315 0.0 1.6 0.00 0.00 0.00 98 1011.9
20260906083146 25 333 0.0 3.2 0.00 0.00 0.00 98 1011.5
20260906082646 25 336 0.0 0.0 0.00 0.00 0.00 98 1011.9
20260906082147 25 343 0.0 1.6 0.00 0.00 0.00 98 1011.5
20260906081646 25 244 0.0 1.6 0.00 0.00 0.00 98 1011.5
20260906081146 25 315 0.0 3.2 0.00 0.00 0.00 98 1011.5
20260906080646 25 4 0.0 3.2 0.00 0.00 0.00 98 1011.5
20260906080146 25 258 0.0 1.6 0.00 0.00 0.00 98 1011.5
20260906075646 25 333 0.0 3.2 0.00 0.00 0.00 98 1011.5
20260906075147 25 255 1.6 3.2 0.00 0.00 0.00 98 1011.5
20260906074646 25 315 0.0 0.0 0.00 0.00 0.00 98 1011.5
20260906074146 25 343 0.0 3.2 0.00 0.00 0.00 98 1011.5
20260906073646 25 214 1.6 4.8 0.00 0.00 0.00 98 1011.5
20260906073146 25 211 3.2 4.8 0.00 0.00 0.00 98 1011.5
20260906072647 25 237 4.8 4.8 0.00 0.00 0.00 98 1011.5
20260906072146 25 235 1.6 4.8 0.00 0.00 0.00 98 1011.5
20260906071647 25 207 3.2 4.8 0.00 0.00 0.00 98 1011.5
20260906071146 25 215 1.6 4.8 0.00 0.00 0.00 98 1011.5
20260906070646 25 233 1.6 4.8 0.00 0.00 0.00 98 1011.5
20260906070146 25 196 0.0 3.2 0.00 0.00 0.00 98 1011.9
20260906065648 25 240 4.8 4.8 0.00 0.00 0.00 98 1011.9
20260906065146 25 224 0.0 4.8 0.00 0.00 0.00 98 1011.5
20260906064646 25 216 1.6 4.8 0.00 0.00 0.00 98 1011.9
20260906064146 25 207 3.2 4.8 0.00 0.00 0.00 98 1011.9
20260906063649 25 189 3.2 4.8 0.00 0.00 0.00 98 1011.5
20260906063146 25 187 1.6 3.2 0.00 0.00 0.00 98 1011.9
20260906062646 25 232 1.6 3.2 0.00 0.00 0.00 98 1011.9
20260906062146 25 210 0.0 3.2 0.00 0.00 0.00 98 1011.9
20260906061646 25 221 0.0 1.6 0.00 0.00 0.00 97 1011.5
20260906061147 25 180 0.0 1.6 0.00 0.00 0.00 98 1011.9
20260906060647 25 213 3.2 3.2 0.00 0.00 0.00 98 1011.9
20260906060147 25 235 1.6 4.8 0.00 0.00 0.00 98 1011.9
20260906055646 25 221 3.2 4.8 0.00 0.00 0.00 98 1011.5
20260906055146 25 213 6.4 8.0 0.00 0.00 0.00 98 1011.9
20260906054646 25 196 1.6 4.8 0.00 0.00 0.00 98 1011.9
20260906054146 25 283 3.2 4.8 0.00 0.00 0.00 98 1011.9
20260906053646 25 228 3.2 8.0 0.00 0.00 0.00 98 1011.9
20260906053146 25 231 3.2 6.4 0.00 0.00 0.00 97 1011.9
20260906052646 25 215 4.8 8.0 0.00 0.00 0.00 97 1011.9
20260906052146 25 201 4.8 8.0 0.00 0.00 0.00 97 1011.9
20260906051647 25 185 4.8 8.0 0.00 0.00 0.00 97 1011.5
20260906051146 25 225 6.4 8.0 0.00 0.00 0.00 97 1011.5
20260906050646 25 213 6.4 6.4 0.00 0.00 0.00 97 1011.5
20260906050147 25 194 3.2 6.4 0.00 0.00 0.00 97 1011.9
20260906045646 25 209 3.2 4.8 0.00 0.00 2.95 97 1011.5
20260906045146 25 252 3.2 3.2 0.00 0.00 2.95 97 1011.5
20260906044646 25 205 1.6 4.8 0.00 0.00 2.95 97 1011.5
20260906044146 25 180 1.6 4.8 0.00 0.00 2.95 97 1011.5
20260906043646 25 197 3.2 6.4 0.00 0.00 2.95 97 1011.5
20260906043146 25 192 4.8 6.4 0.00 0.00 2.95 97 1011.5
20260906042646 25 183 4.8 6.4 0.00 0.00 2.95 96 1011.5
20260906042146 25 171 4.8 6.4 0.00 0.00 2.95 96 1011.9
20260906041646 25 184 4.8 4.8 0.00 0.00 2.95 96 1011.9
20260906041146 25 175 3.2 4.8 0.00 0.00 2.95 96 1011.5
20260906040646 25 168 4.8 6.4 0.00 0.00 2.95 95 1011.5
20260906040146 25 165 1.6 4.8 0.00 0.00 2.95 96 1011.5
20260906035646 25 141 3.2 4.8 0.00 0.00 2.95 96 1011.5
20260906035147 25 129 0.0 0.0 0.00 0.00 2.95 95 1011.5
20260906034646 25 160 1.6 4.8 0.00 0.00 2.95 95 1011.5
20260906034146 25 152 3.2 3.2 0.00 0.00 2.95 96 1011.5
20260906033646 25 132 1.6 4.8 0.00 0.00 2.95 96 1011.5
20260906033146 25 190 3.2 3.2 0.00 0.00 2.95 95 1011.5
20260906032646 25 239 3.2 6.4 0.00 0.00 2.95 95 1011.5
20260906032147 25 194 4.8 4.8 0.00 0.00 2.95 95 1011.5
20260906031646 25 183 4.8 4.8 0.00 0.00 2.95 95 1011.9
20260906031146 25 154 1.6 3.2 0.00 0.00 2.95 95 1011.9
20260906030646 25 224 0.0 4.8 0.00 0.00 2.95 95 1011.5
20260906030146 25 214 3.2 4.8 0.00 0.00 2.95 95 1011.5
20260906025646 25 192 3.2 4.8 0.00 0.00 2.95 95 1011.5
20260906025146 25 190 1.6 3.2 0.05 0.00 2.95 95 1011.5
20260906024646 25 163 3.2 4.8 0.05 0.00 2.95 95 1011.9
20260906024146 25 103 0.0 3.2 0.00 0.00 2.92 95 1011.5
20260906023646 25 65 0.0 1.6 0.00 0.00 2.92 95 1011.5
20260906023146 25 129 1.6 3.2 0.00 0.00 2.92 95 1011.5
20260906022646 25 193 3.2 3.2 0.00 0.00 2.92 95 1011.5
20260906022146 25 267 3.2 3.2 0.00 0.00 2.92 95 1011.5
20260906021646 25 282 1.6 4.8 0.00 0.00 2.92 94 1011.5
20260906021149 26 315 0.0 4.8 0.00 0.00 2.92 94 1011.5
20260906020647 26 288 3.2 3.2 0.00 0.00 2.92 94 1011.5
20260906020146 26 236 3.2 4.8 0.00 0.00 2.92 93 1011.9
20260906015647 26 313 1.6 4.8 0.00 0.00 2.92 94 1011.5
20260906015146 26 345 1.6 4.8 0.00 0.00 2.92 93 1011.2
20260906014646 26 34 0.0 3.2 0.00 0.00 2.92 92 1011.2
20260906014147 26 44 0.0 3.2 0.00 0.00 2.92 92 1011.5
20260906013646 26 82 3.2 4.8 0.00 0.00 2.92 93 1011.2
20260906013146 25 59 0.0 3.2 0.00 0.00 2.92 93 1011.2
20260906012646 25 164 0.0 0.0 0.00 0.00 2.92 92 1011.2
20260906012147 25 129 0.0 0.0 0.00 0.00 2.92 93 1011.2
20260906011647 25 148 3.2 4.8 0.00 0.00 2.92 93 1011.2
20260906011146 25 210 0.0 0.0 0.00 0.00 2.92 92 1011.2
20260906010647 25 135 0.0 0.0 0.00 0.00 2.92 92 1011.2
20260906010147 25 135 0.0 0.0 0.00 0.00 2.92 91 1011.2
20260906005646 25 143 3.2 3.2 0.00 0.00 2.92 91 1011.2
20260906005147 25 209 0.0 3.2 0.00 0.00 2.92 91 1011.5
20260906004646 25 284 1.6 4.8 0.00 0.00 2.92 91 1011.2
20260906004146 25 234 3.2 4.8 0.00 0.00 2.92 91 1011.2
20260906003646 26 232 3.2 3.2 0.00 0.00 2.92 91 1011.2
20260906003146 25 231 4.8 6.4 0.00 0.00 2.92 91 1011.5
20260906002646 25 230 3.2 8.0 0.00 0.00 2.92 92 1011.2
20260906002146 26 234 8.0 8.0 0.00 0.00 2.92 93 1011.2
20260906001646 26 228 6.4 6.4 0.00 0.00 2.92 93 1011.5
20260906001146 26 207 3.2 4.8 0.00 0.00 2.92 94 1011.5
20260906000646 26 228 3.2 6.4 0.00 0.00 2.92 94 1011.5
20260906000147 26 189 0.0 3.2 0.00 0.00 2.92 95 1011.5
20260905235646 26 173 3.2 3.2 0.00 0.00 2.92 95 1011.5
20260905235147 26 228 0.0 4.8 0.00 0.00 2.92 95 1011.5
20260905234647 26 275 3.2 6.4 0.00 0.00 2.92 94 1011.5
20260905234146 26 252 1.6 4.8 0.00 0.00 2.92 94 1011.2
20260905233646 25 226 3.2 4.8 0.00 0.00 2.92 94 1011.2
20260905233146 25 174 0.0 4.8 0.00 0.00 2.92 93 1011.5
20260905232646 25 192 3.2 4.8 0.00 0.00 2.92 93 1011.9
20260905232146 25 223 4.8 6.4 0.05 0.00 2.92 92 1011.9
20260905231646 25 243 4.8 6.4 0.13 0.00 2.92 91 1011.5
20260905231147 25 223 3.2 4.8 0.13 0.00 2.92 92 1011.5
20260905230646 25 47 0.0 6.4 0.13 0.00 2.92 92 1011.9
20260905230146 25 27 1.6 3.2 0.13 0.00 2.90 92 1011.5
20260905225647 25 71 3.2 6.4 0.43 0.00 2.90 93 1011.9
20260905225146 25 68 0.0 6.4 0.89 0.00 2.87 93 1012.2
20260905224646 26 13 8.0 9.7 1.02 0.00 2.82 94 1012.2
20260905224147 26 16 4.8 9.7 0.61 0.00 2.72 93 1012.2
20260905223646 26 63 0.0 14.5 0.18 0.00 2.64 92 1012.2
20260905223146 27 66 20.9 20.9 0.00 0.00 2.62 87 1012.2
20260905222646 27 341 4.8 8.0 0.00 0.00 2.62 86 1011.9
20260905222146 28 7 4.8 6.4 0.00 0.00 2.62 85 1012.2
20260905221646 28 335 4.8 8.0 0.00 0.00 2.62 83 1012.2
20260905221146 28 284 8.0 14.5 0.00 0.00 2.62 82 1011.9
20260905220646 28 237 12.9 25.7 0.00 0.00 2.62 83 1011.9
20260905220148 28 224 19.3 20.9 0.00 0.00 2.62 83 1011.9
20260905215647 28 216 17.7 29.0 0.00 0.00 2.62 82 1011.5
20260905215146 31 218 20.9 32.2 0.00 0.00 2.62 73 1011.5
20260905214646 31 217 14.5 17.7 0.00 0.00 2.62 67 1011.5
20260905214146 31 197 14.5 14.5 0.00 0.00 2.62 67 1011.2
20260905213646 31 177 16.1 19.3 0.00 0.00 2.62 67 1011.5
20260905213148 31 180 14.5 20.9 0.00 0.00 2.62 68 1011.2
20260905212646 32 198 8.0 17.7 0.00 0.00 2.62 66 1011.2
20260905212146 32 189 11.3 16.1 0.00 0.00 2.62 67 1011.2
20260905211646 32 179 9.7 16.1 0.00 0.00 2.62 69 1011.2
20260905211148 31 172 9.7 14.5 0.00 0.00 2.62 69 1011.2
20260905210646 31 138 9.7 9.7 0.00 0.00 2.62 65 1011.2
20260905210146 31 163 4.8 12.9 0.00 0.00 2.62 66 1011.2
20260905205646 31 181 11.3 14.5 0.00 0.00 2.62 66 1011.2
20260905205146 32 177 6.4 12.9 0.00 0.00 2.62 65 1011.2
20260905204646 33 145 4.8 8.0 0.00 0.00 2.62 62 1011.2
20260905204147 32 251 1.6 6.4 0.00 0.00 2.62 64 1011.2
20260905203646 32 127 4.8 9.7 0.00 0.00 2.62 66 1011.2
20260905203146 32 168 8.0 14.5 0.00 0.00 2.62 66 1011.2
20260905202646 32 15 1.6 8.0 0.00 0.00 2.62 64 1011.2
20260905202146 32 177 8.0 9.7 0.00 0.00 2.62 67 1011.2
20260905201646 32 79 4.8 14.5 0.00 0.00 2.62 65 1011.5
20260905201146 32 160 6.4 12.9 0.00 0.00 2.62 66 1011.2
20260905200646 32 167 8.0 11.3 0.00 0.00 2.62 66 1011.5
20260905200147 31 59 4.8 6.4 0.00 0.00 2.62 69 1011.2
20260905195646 31 173 8.0 11.3 0.00 0.00 2.62 69 1011.2
20260905195147 32 181 6.4 9.7 0.00 0.00 2.62 67 1011.5
20260905194647 32 176 4.8 6.4 0.00 0.00 2.62 68 1011.9
20260905194146 31 107 1.6 4.8 0.00 0.00 2.62 70 1011.9
20260905193646 31 160 6.4 11.3 0.00 0.00 2.62 71 1011.5
20260905193147 31 116 3.2 8.0 0.00 0.00 2.62 70 1011.9
20260905192648 31 311 3.2 8.0 0.00 0.00 2.62 71 1011.9
20260905192146 31 344 3.2 6.4 0.00 0.00 2.62 70 1012.2
20260905191646 31 356 4.8 11.3 0.00 0.00 2.62 70 1012.2
20260905191146 31 327 3.2 8.0 0.00 0.00 2.62 69 1012.2
20260905190647 32 59 4.8 11.3 0.00 0.00 2.62 68 1012.2
20260905190146 32 232 4.8 8.0 0.00 0.00 2.62 68 1012.2
20260905185647 32 169 4.8 9.7 0.00 0.00 2.62 69 1011.9
20260905185147 31 44 0.0 6.4 0.00 0.00 2.62 67 1012.2
20260905184646 32 322 4.8 6.4 0.00 0.00 2.62 65 1012.5
20260905184147 32 42 0.0 9.7 0.00 0.00 2.62 65 1012.9
20260905183647 31 314 3.2 8.0 0.00 0.00 2.62 70 1012.9
20260905183147 31 357 1.6 8.0 0.00 0.00 2.62 70 1012.9
20260905182646 31 354 4.8 9.7 0.00 0.00 2.62 74 1012.9
20260905182146 31 287 4.8 8.0 0.00 0.00 2.62 74 1013.2
20260905181646 30 269 4.8 4.8 0.00 0.00 2.62 75 1012.9
20260905181146 30 240 4.8 8.0 0.00 0.00 2.62 75 1013.2
20260905180646 30 252 1.6 6.4 0.00 0.00 2.62 77 1013.2
20260905180147 30 199 8.0 9.7 0.00 0.00 2.62 78 1013.2
20260905175646 30 242 3.2 4.8 0.00 0.00 2.62 82 1013.2
20260905175146 29 261 6.4 8.0 0.00 0.00 2.62 82 1013.2
20260905174647 28 205 6.4 8.0 0.00 0.00 2.62 84 1013.2
20260905174147 28 209 8.0 8.0 0.00 0.00 2.62 86 1013.2
20260905173654 28 157 0.0 6.4 0.00 0.00 2.62 89 1013.2
20260905173147 27 223 3.2 8.0 0.00 0.00 2.62 91 1013.2
20260905172646 27 251 6.4 6.4 0.00 0.00 2.62 91 1013.5
20260905172146 27 285 4.8 6.4 0.00 0.00 2.62 91 1013.5
20260905171647 27 291 4.8 8.0 0.00 0.00 2.62 93 1013.5
20260905171147 27 335 3.2 6.4 0.00 0.00 2.62 95 1013.5
20260905170647 26 355 0.0 4.8 0.00 0.00 2.62 97 1013.5
20260905170146 26 315 0.0 4.8 0.00 0.00 2.62 99 1013.5
20260905165646 26 355 0.0 4.8 0.05 0.00 2.62 99 1013.9
20260905165146 26 339 3.2 4.8 0.23 0.00 2.62 99 1013.9
20260905164647 25 268 6.4 8.0 0.53 0.00 2.62 99 1013.9
20260905164147 25 262 3.2 6.4 0.84 0.00 2.59 98 1013.9
20260905163646 25 82 0.0 11.3 1.75 0.00 2.51 99 1013.9
20260905163146 25 58 8.0 8.0 3.12 0.00 2.41 98 1014.2
20260905162646 25 133 4.8 8.0 2.95 0.00 2.16 98 1014.2
20260905162146 25 176 6.4 11.3 4.32 0.00 1.91 98 1014.2
20260905161646 25 163 8.0 9.7 5.16 0.00 1.50 97 1014.2
20260905161146 25 186 9.7 14.5 3.78 0.00 1.12 97 1014.2
20260905160646 25 201 14.5 24.1 2.29 0.00 0.71 96 1014.2
20260905160146 25 216 9.7 16.1 1.19 0.00 0.46 94 1014.2
20260905155647 26 173 14.5 16.1 0.84 0.00 0.33 95 1013.9
20260905155148 26 138 6.4 14.5 1.27 0.00 0.25 95 1014.2
20260905154646 26 141 9.7 9.7 0.79 0.00 0.15 92 1013.9
20260905154147 26 193 6.4 14.5 0.18 0.00 0.03 91 1013.5
20260905153646 27 153 6.4 9.7 0.05 0.00 0.00 89 1013.5
20260905153147 27 129 3.2 11.3 0.00 0.00 0.00 88 1013.9
20260905152646 27 57 4.8 9.7 0.00 0.00 0.00 89 1013.5
20260905152147 27 175 4.8 11.3 0.00 0.00 0.00 88 1013.5
20260905151646 27 180 8.0 11.3 0.00 0.00 0.00 86 1013.5
20260905151147 29 186 8.0 8.0 0.00 0.00 0.00 84 1013.5
20260905150646 29 194 1.6 4.8 0.00 0.00 0.00 79 1013.5
20260905150147 29 269 4.8 8.0 0.00 0.00 0.00 80 1013.5
20260905145646 30 332 6.4 9.7 0.00 0.00 0.00 78 1013.5
20260905145147 30 358 4.8 8.0 0.00 0.00 0.00 78 1013.5
20260905144647 29 58 6.4 8.0 0.00 0.00 0.00 78 1013.2
20260905144146 30 21 3.2 4.8 0.00 0.00 0.00 80 1013.5
20260905143646 29 359 4.8 4.8 0.00 0.00 0.00 81 1013.5
20260905143146 28 330 4.8 6.4 0.00 0.00 0.00 82 1013.5
20260905142647 28 58 0.0 8.0 0.00 0.00 0.00 83 1013.5
20260905142147 28 333 3.2 9.7 0.00 0.00 0.00 84 1013.5
20260905141647 28 350 6.4 8.0 0.00 0.00 0.00 84 1013.5
20260905141147 29 305 9.7 12.9 0.00 0.00 0.00 83 1013.5
20260905140646 29 356 8.0 9.7 0.00 0.00 0.00 82 1013.5
20260905140146 29 7 3.2 8.0 0.00 0.00 0.00 83 1013.5
20260905135646 29 311 3.2 9.7 0.00 0.00 0.00 83 1013.5
20260905135146 28 24 8.0 8.0 0.00 0.00 0.00 85 1013.5
20260905134648 28 288 11.3 12.9 0.00 0.00 0.00 85 1013.5
20260905134147 28 360 8.0 9.7 0.00 0.00 0.00 86 1013.5
20260905133647 28 339 6.4 12.9 0.00 0.00 0.00 85 1013.2
20260905133146 28 305 4.8 9.7 0.00 0.00 0.00 83 1013.5
20260905132647 28 48 0.0 6.4 0.00 0.00 0.00 85 1013.5
20260905132146 28 296 6.4 8.0 0.00 0.00 0.00 87 1013.5
20260905131647 28 294 4.8 6.4 0.00 0.00 0.00 88 1013.2
20260905131147 27 275 4.8 6.4 0.00 0.00 0.00 87 1013.5
20260905130646 27 314 3.2 4.8 0.00 0.00 0.00 87 1013.5
20260905130146 27 337 4.8 6.4 0.00 0.00 0.00 87 1013.5
20260905125647 27 338 1.6 4.8 0.00 0.00 0.00 88 1013.5
20260905125147 27 105 1.6 6.4 0.00 0.00 0.00 91 1013.5
20260905124647 26 281 1.6 4.8 0.00 0.00 0.00 92 1013.2
20260905124146 26 213 3.2 6.4 0.00 0.00 0.00 93 1013.2
20260905123646 26 342 1.6 4.8 0.00 0.00 0.00 93 1013.5
20260905123146 26 351 1.6 6.4 0.00 0.00 0.00 94 1013.2
20260905122647 26 341 3.2 4.8 0.00 0.00 0.00 95 1013.5
20260905122146 25 350 3.2 4.8 0.00 0.00 0.00 95 1013.2
20260905121646 25 307 0.0 4.8 0.00 0.00 0.00 95 1013.5
20260905121146 25 346 4.8 4.8 0.00 0.00 0.00 95 1013.5
20260905120646 25 333 4.8 4.8 0.00 0.00 0.00 94 1013.2
20260905120146 25 171 1.6 4.8 0.00 0.00 0.00 94 1013.2
20260905115646 25 292 3.2 6.4 0.00 0.00 0.00 94 1013.2
20260905115147 25 119 3.2 4.8 0.00 0.00 0.00 94 1013.2
20260905114646 25 211 3.2 6.4 0.00 0.00 0.00 94 1013.2
20260905114146 25 220 1.6 6.4 0.00 0.00 0.00 94 1013.2
20260905113647 25 167 1.6 4.8 0.00 0.00 0.00 94 1013.2
20260905113146 25 234 3.2 4.8 0.00 0.00 0.00 94 1012.9
20260905112646 25 175 4.8 6.4 0.00 0.00 0.00 94 1012.9
20260905112146 25 230 3.2 4.8 0.00 0.00 0.00 93 1012.5
20260905111650 25 253 3.2 6.4 0.00 0.00 0.00 93 1012.5
20260905111146 25 274 0.0 4.8 0.00 0.00 0.00 94 1012.5
20260905110646 25 237 3.2 4.8 0.00 0.00 0.00 94 1012.2
20260905110147 25 23 1.6 4.8 0.00 0.00 0.00 94 1012.5
20260905105646 25 189 3.2 4.8 0.00 0.00 0.00 94 1012.2
20260905105146 25 282 3.2 6.4 0.00 0.00 0.00 94 1012.2
20260905104646 25 220 0.0 4.8 0.00 0.00 0.00 94 1012.2
20260905104146 25 81 0.0 0.0 0.00 0.00 0.00 94 1012.2
20260905103647 25 89 0.0 0.0 0.00 0.00 0.00 94 1012.2
20260905103147 25 360 0.0 1.6 0.00 0.00 0.00 93 1012.2
20260905102646 26 320 1.6 1.6 0.00 0.00 0.00 93 1012.2
20260905102146 26 284 3.2 3.2 0.00 0.00 0.00 93 1012.5
20260905101648 26 238 1.6 1.6 0.00 0.00 0.00 93 1012.5
20260905101146 26 212 0.0 1.6 0.00 0.00 0.00 93 1012.2
20260905100646 26 200 0.0 3.2 0.00 0.00 0.00 92 1012.5
20260905100146 26 205 0.0 3.2 0.00 0.00 0.00 92 1012.5
20260905095646 26 283 3.2 4.8 0.00 0.00 0.00 92 1012.5
20260905095147 26 308 3.2 3.2 0.00 0.00 0.00 92 1012.5
20260905094646 26 308 1.6 3.2 0.00 0.00 0.00 92 1012.5
20260905094146 26 20 0.0 3.2 0.00 0.00 0.00 93 1012.5
20260905093647 26 311 0.0 3.2 0.00 0.00 0.00 93 1012.5
20260905093146 26 309 0.0 1.6 0.00 0.00 0.00 93 1012.5
20260905092647 26 248 0.0 1.6 0.00 0.00 0.00 93 1012.5
20260905092147 26 141 0.0 0.0 0.00 0.00 0.00 92 1012.5
20260905091647 26 279 0.0 3.2 0.00 0.00 0.00 93 1012.5
20260905091146 26 333 0.0 3.2 0.00 0.00 0.00 92 1012.5
20260905090648 26 294 1.6 3.2 0.00 0.00 0.00 92 1012.5
20260905090147 26 276 0.0 3.2 0.00 0.00 0.00 93 1012.5
20260905085646 26 216 3.2 4.8 0.00 0.00 0.00 93 1012.2
20260905085146 26 197 3.2 3.2 0.00 0.00 0.00 93 1012.5
20260905084646 26 227 3.2 3.2 0.00 0.00 0.00 93 1012.5
20260905084147 26 256 0.0 3.2 0.00 0.00 0.00 93 1012.2